www.pogodaiklimat.ru

Погода и климат >> Архив погоды >> Канада >> Нунавут >> Юрика


ПОГОДА в Юрике

  • Прогноз погоды в Юрике
  • Монитор погоды в Юрике

АРХИВ ПОГОДЫ в Юрике

Время (UTC), дата Ветер
(напр.,м/с)
 
Видим.   Явления Облачность Т
(С)
Тd
(С)
f
(%)
Тe
(С)
Тes
(С)
Комфортность P
(гПа)
Po
(гПа)
Тmin
(С)
Tmax
(С)
R
(мм)
R24
(мм)
S
(см)
03 15.09 С 1 16 км 10/10 200 м
[]
-2.9 -4.1 91 -4 -4 1011.0 1009.6
06 15.09 В 1 24 км 10/10 300 м
[Sc]
-2.7 -3.6 94 -5 -5 1011.3 1009.9 13
09 15.09 ЮВ 2 19 км 9/9 300 м
[]
-2.6 -6.2 76 -6 -6 1012.2 1010.8
12 15.09 СВ 2 19 км 9/9 300 м
[Sc Ac As]
-4.7 -7.2 83 -8 -8 1013.4 1012.0
15 15.09 СВ 1 24 км 8/8 300 м
[]
-4.9 -7.1 85 -7 -7 1014.4 1013.0
18 15.09 СВ 1 16 км 9/8 300 м
[Sc Ac As]
-4.0 -6.5 83 -6 -6 1015.4 1014.0 -2.2
21 15.09 СВ 2 24 км 8/8 300 м
[]
-2.4 -5.2 81 -6 -6 1016.7 1015.3
00 16.09 ЮВ 2 24 км 5/3 300 м
[Sc Ci fib]
-4.7 -6.4 88 -9 -9 1018.3 1016.9 -6.2 -2.3
03 16.09 ЮВ 2 24 км 9/9 200 м
[]
-5.1 -6.3 91 -10 -10 1019.6 1018.2
06 16.09 СВ 2 24 км 10/10 200 м
[Sc]
-5.4 -6.3 93 -9 -9 1021.0 1019.6
09 16.09 С 1 6000 м 10/10 100 м
[]
-5.1 -6.0 93 -6 -6 1022.2 1020.8
12 16.09 С 1 16 км {снег} 10/10 100 м
[Sc]
-5.2 -6.1 93 -6 -6 1023.2 1021.8 0.0 0
15 16.09 СВ 2 4800 м 9/9 50 м
[]
-5.7 -6.5 94 -9 -9 1023.5 1022.1
18 16.09 СЗ 1 9000 м дымка {снег} 9/9 100 м
[Sc]
-4.7 -5.6 93 -7 -7 1023.6 1022.2 -4.7 0.0 0
21 16.09 З 2 9000 м 10/10 50 м
[]
-3.4 -4.1 95 -8 -8 1023.5 1022.1
00 17.09 С 1 9000 м слаб. снег 10/10 100 м
[Sc]
-3.8 -4.5 95 -5 -5 1023.8 1022.4 -5.8 -3.1 0.0 0
03 17.09 СВ 2 11 км 10/10 100 м
[]
-4.2 -5.4 91 -8 -8 1024.2 1022.8
06 17.09 С 1 11 км слаб. снег 10/10 100 м
[Sc]
-5.2 -6.1 93 -6 -6 1024.7 1023.3 0.0 0
09 17.09 С 2 3200 м 8/8 100 м
[]
-5.4 -6.3 93 -9 -9 1025.2 1023.8
12 17.09 СВ 1 6000 м дымка {снег} 10/10 200 м
[Sc]
-6.1 -7.0 93 -9 -9 1025.8 1024.4 0.0 0
15 17.09 СВ 2 3200 м 6/6 100 м
[]
-5.4 -6.3 93 -10 -10 1025.9 1024.5
18 17.09 6000 м {снег, морось} н/о -5.5 -6.4 93 -9 -9 1026.2 1024.8 -5.0 0.0 0
21 17.09 С 1 400 м 5/5 50 м
[]
-6.4 -7.4 93 -7 -7 1026.5 1025.1
00 18.09 С 1 4000 м дымка {снег, туман} 1/1 50 м
[St]
-8.5 -9.7 91 -9 -9 1026.3 1024.9 -8.8 -5.2 0.0 0
03 18.09 штиль 0 200 м 5/5 <50 м
[]
-9.9 -11.2 90 -10 -10 1026.3 1024.9
06 18.09 3200 м дымка {туман} н/о -11.0 -12.4 89 -13 -13 1025.8 1024.4
09 18.09 СВ 1 800 м 5/5 50 м
[]
-9.9 -11.3 89 -12 -12 1025.5 1024.1
12 18.09 400 м туман н/о -9.5 -10.8 90 -10 -10 1024.8 1023.4
15 18.09 СВ 1 400 м 4/4 50 м
[]
-10.9 -12.4 89 -13 -13 1023.8 1022.4
18 18.09 З 1 600 м туман 6/6 <50 м
[Sc]
-6.4 -7.5 92 -9 -9 1022.7 1021.3 -6.3 0
21 18.09 З 3 11 км 9/9 <50 м
[]
-5.5 -6.4 93 -11 -11 1021.6 1020.2
00 19.09 З 3 11 км {туман} 9/9 300 м
[Sc]
-5.8 -6.7 93 -12 -12 1020.6 1019.2 -11.1 -5.4 0
03 19.09 З 4 11 км 9/9 <50 м
[]
-5.7 -6.6 93 -12 -12 1019.6 1018.2
06 19.09 СЗ 1 16 км 9/9 200 м
[Sc]
-7.6 -8.7 92 -10 -10 1019.0 1017.6
09 19.09 В 2 24 км 3/3 300 м
[]
-9.5 -10.8 90 -13 -13 1018.6 1017.2
12 19.09 3200 м дымка {туман} н/о -10.3 -11.7 89 -14 -14 1018.2 1016.8
15 19.09 В 2 800 м 6/6 50 м
[]
-9.4 -10.7 90 -13 -13 1017.3 1015.9
18 19.09 СЗ 1 9000 м дымка {туман} 8/8 50 м
[St]
-6.5 -7.5 93 -9 -9 1016.2 1014.8 -6.3 0
21 19.09 З 5 24 км 9/9 50 м
[]
-6.4 -7.4 93 -14 -14 1015.1 1013.7
00 20.09 СЗ 3 11 км {туман} 9/9 <50 м
[St]
-7.4 -8.4 93 -13 -13 1014.5 1013.1 -10.8 -5.7 0
03 20.09 СЗ 3 2400 м 6/6 50 м
[]
-8.6 -9.8 91 -14 -14 1013.7 1012.3
06 20.09 2400 м дымка н/о -8.6 -9.8 91 -16 -16 1012.9 1011.5 0
09 20.09 С 4 2400 м 8/8 50 м
[]
-9.2 -10.4 91 -16 -16 1013.0 1011.6
12 20.09 СЗ 3 24 км туман поземный 3/3 50 м
[St]
-10.0 -11.4 89 -16 -16 1012.5 1011.1 0
15 20.09 СЗ 6 16 км 4/4 50 м
[]
-8.7 -10.0 90 -17 -17 1011.9 1010.5
18 20.09 СЗ 4 16 км 3/3 100 м
[Sc Ac As Ci fib]
-8.0 -9.2 91 -14 -14 1011.3 1009.9 -7.4
21 20.09 СЗ 4 16 км 9/9 200 м
[]
-9.0 -10.3 90 -16 -16 1011.3 1009.9
00 21.09 СВ 1 11 км 3/1 100 м
[Sc Ac As]
-10.7 -12.1 89 -13 -13 1010.9 1009.5 -10.7 -7.4
03 21.09 С 2 3200 м 1/1 100 м
[]
-11.2 -12.7 89 -15 -15 1010.3 1008.9
06 21.09 СЗ 2 9000 м дымка 5/5 50 м
[St]
-10.4 -11.9 89 -15 -15 1010.2 1008.8 0
09 21.09 С 2 800 м 6/6 50 м
[]
-10.6 -12.1 89 -15 -15 1010.2 1008.8
12 21.09 СВ 2 800 м туман 9/8 50 м
[St Ac As]
-9.9 -11.3 89 -14 -14 1009.6 1008.2
15 21.09 С 2 2400 м 9/9 50 м
[]
-8.8 -10.0 91 -13 -13 1008.8 1007.4
18 21.09 С 2 19 км {туман} 9/9 100 м
[St Ac und]
-9.3 -10.7 90 -13 -13 1008.1 1006.7 -8.6
21 21.09 СЗ 2 16 км 9/9 <50 м
[]
-8.6 -9.8 91 -13 -13 1008.0 1006.6

 

Местоположение метеостанции Юрика (Нунавут, Канада): широта 79.98 долгота -85.93 высота над уровнем моря 10 м.

В архиве по умолчанию представлена погода в Юрике за последнюю неделю. Архивные данные за месяц целиком и за предыдущие месяцы, начиная с января 2011 года, Вы можете получить, выбрав интересующий диапазон дат из раскрывающегося списка и нажав кнопку "Ввод!".


*Определитесь, кто Вы:
робот инопланетянин человек

Внимание! Время в таблицах - всемирное. Для получения местного времени необходимо прибавить поправку, которая равна -6 ч.

Смотрите также архив погоды в соседних городах и на ближайших метеорологических станциях:

Погода в Юрике (Нунавут, Канада) (1 км)
Погода в Сарнии (Онтарио, Канада) (343 км)
Погода в Исачсене (Нунавут, Канада) (382 км)
Погода в Mittarfik Qaanaaq (Гренландия) (452 км)
Погода в Kitsissut (Гренландия) (471 км)
Погода в Алерте (Нунавут, Канада) (483 км)
Погода в Аэропорту Ресольют Бэй (Нунавут, Канада) (623 км)
Погода в Ресольют Бэй (Нунавут, Канада) (623 км)
Погода в Арктик Бей (Нунавут, Канада) (777 км)
Погода в Понд-Инлете (Нунавут, Канада) (834 км)

Пояснения к столбцам:

Ветер - указаны скорость ветра в м/с - средняя за 10 мин, порывы в срок и между сроками (в фигурных скобках) и направление, откуда дует ветер: С - северный, СВ - северо-восточный, В - восточный, ЮВ - юго-восточный, Ю - южный, ЮЗ - юго-западный, З - западный, СЗ - северо-западный.
Видимость - горизонтальная дальность видимости в метрах или километрах. При видимости от 1 до 10 км при отсутствии осадков обычно наблюдается дымка, при ухудшении видимости до 1 км и менее - туман. В сухую погоду видимость может ухудшаться дымом, пылью или мглою.
Явления - указаны атмосферные явления, наблюдавшиеся в срок или в последний час перед сроком; фигурными скобками обозначены явления, наблюдавшиеся между сроками (за 1-3 часа до срока); квадратными скобками обозначены град или гололедные отложения с указанием их диаметра в мм.
Облачность - указаны через наклонную черту общая и нижняя облачность в баллах и высота нижней границы облаков в метрах; квадратными скобками обозначены формы облаков: Ci - перистые, Cs - перисто-слоистые, Cc - перисто-кучевые, Ac - высококучевые, As - высокослоистые, Sc - слоисто-кучевые, Ns - слоисто-дождевые, Cu - кучевые, Cb - кучево-дождевые. Подробнее классификацию облаков см. в Атласе облаков (PDF).
T - Температура воздуха - температура, измеренная на высоте 2 м над землей.
Td - Температура точки росы - температура, при понижении до которой содержащийся в воздухе водяной пар достигнет насыщения.
f - Относительная влажность воздуха - влажноcть воздуха, измеренная на высоте 2 м над землей.
Te - Эффективная температура - температура, которую ощущает одетый по сезону человек в тени. Характеристика душности погоды. При расчете учитывается влияние влажности воздуха и скорости ветра на теплоощущения человека.
Tes - Эффективная температура на солнце - температура, которую ощущает человек, с поправкой на солнечный нагрев. Характеристика знойности погоды. Зависит от высоты солнца над горизонтом, облачности и скорости ветра. Ночью, в пасмурную погоду, а также при ветре 12 м/с и более поправка равна нулю.
P - Атмосферное давление - приведенное к уровню моря атмосферное давление.
Po - Атмосферное давление - измеренное на уровне метеостанции атмосферное давление.
Tmin - Минимальная температура - минимум температуры воздуха на высоте 2 м над землей.
Tmax - Максимальная температура - максимум температуры воздуха на высоте 2 м над землей.
R - Количество осадков - Количество выпавших осадков за период времени, мм. При наведении курсора мыши на число - период времени, за который выпало указанное количество осадков.
R24 - Количество осадков - Количество выпавших осадков за 24 часа, мм.
S - Снежный покров - Высота снежного покрова, см. При наведении курсора мыши на число - состояние снежного покрова и степень покрытия местности в баллах.